User: anonymous   Login
Location: Elma
(49.8670°N, 95.9170°W)
Time: 10:55:36
(UTC-05:00)
Language:

ISS - Orbit

View from above orbital plane
View from above orbital plane
View from above satellite
View from above satellite

Ground track
Ground track

The orbit data is extracted from the following two-line orbital elements,

1 25544U 98067A   19117.55613511  .00016717  00000-0  10270-3 0  9036
2 25544  51.6397 252.8646 0001363 235.1841 124.9183 15.52622377  7389
Epoch (UTC): 27 April 2019 13:20:50
Eccentricity: 0.0001363
inclination: 51.6397°
perigee height: 408 km
apogee height: 410 km
right ascension of ascending node: 252.8646°
argument of perigee: 235.1841°
revolutions per day: 15.52622377
mean anomaly at epoch: 124.9183°
orbit number at epoch: 738

The dashed part of the orbit path shows where the satellite is in the earth's shadow,  

DLR